WA6MHA-11 Weather Reports


Display with metric or nautical units.
time (UTC)temp
F
wind
direction
speed
MPH
gust
MPH
rain 1hr
in
rain 24hr
in
rain mn
in
humidity
%
barometer
mb
20170821082950 65 117 0.0 3.0 0.00 0.00 0.00 52 1017.2
20170821082750 65 182 3.0 4.0 0.00 0.00 0.00 52 1017.1
20170821082554 65 182 3.0 4.0 0.00 0.00 0.00 52 1017.1
20170821082550 65 182 3.0 4.0 0.00 0.00 0.00 52 1017.1
20170821082342 64 135 1.0 2.0 0.00 0.00 0.00 52 1017.1
20170821082151 64 135 1.0 2.0 0.00 0.00 0.00 52 1017.1
20170821082147 64 135 1.0 2.0 0.00 0.00 0.00 52 1017.1
20170821081847 64 96 0.0 2.0 0.00 0.00 0.00 52 1017.2
20170821081749 64 96 0.0 2.0 0.00 0.00 0.00 52 1017.2
20170821081745 64 96 0.0 2.0 0.00 0.00 0.00 52 1017.2
20170821081556 64 117 2.0 4.0 0.00 0.00 0.00 52 1017.2
20170821081350 64 117 2.0 4.0 0.00 0.00 0.00 52 1017.2
20170821081345 64 117 2.0 4.0 0.00 0.00 0.00 52 1017.2
20170821080943 64 180 0.0 4.0 0.00 0.00 0.00 52 1017.1
20170821080751 64 112 4.0 4.0 0.00 0.00 0.00 52 1017.1
20170821080544 64 112 4.0 4.0 0.00 0.00 0.00 52 1017.1
20170821080542 64 112 4.0 4.0 0.00 0.00 0.00 52 1017.1
20170821080140 64 94 4.0 4.0 0.00 0.00 0.00 52 1017.1
20170821075911 64 117 3.0 4.0 0.00 0.00 0.00 52 1017.1
20170821075742 64 117 3.0 4.0 0.00 0.00 0.00 52 1017.1
20170821075739 64 117 3.0 4.0 0.00 0.00 0.00 52 1017.1
20170821075526 64 85 2.0 2.0 0.00 0.00 0.00 52 1017.1
20170821075341 64 85 2.0 2.0 0.00 0.00 0.00 52 1017.1
20170821075339 64 85 2.0 2.0 0.00 0.00 0.00 52 1017.1
20170821075337 64 85 2.0 2.0 0.00 0.00 0.00 52 1017.1
20170821075132 64 87 1.0 3.0 0.00 0.00 0.00 52 1017.0
20170821074942 64 87 1.0 3.0 0.00 0.00 0.00 52 1017.0
20170821074940 64 87 1.0 3.0 0.00 0.00 0.00 52 1017.0
20170821074936 64 87 1.0 3.0 0.00 0.00 0.00 52 1017.0
20170821074737 64 96 2.0 5.0 0.00 0.00 0.00 52 1017.1
20170821074540 64 96 2.0 5.0 0.00 0.00 0.00 52 1017.1
20170821074537 64 96 2.0 5.0 0.00 0.00 0.00 52 1017.1
20170821074535 64 96 2.0 5.0 0.00 0.00 0.00 52 1017.1
20170821073732 64 45 2.0 4.0 0.00 0.00 0.00 52 1017.1
20170821073519 64 96 2.0 2.0 0.00 0.00 0.00 52 1017.1
20170821073336 64 96 2.0 0.0 0.00 0.00 0.00 52 1017.1
20170821073333 64 96 2.0 2.0 0.00 0.00 0.00 52 1017.1
20170821073125 64 139 1.0 2.0 0.00 0.00 0.00 52 1017.1
20170821072936 64 139 1.0 2.0 0.00 0.00 0.00 52 1017.1
20170821072934 64 139 1.0 2.0 0.00 0.00 0.00 52 1017.1
20170821072930 64 139 1.0 2.0 0.00 0.00 0.00 52 1017.1
20170821072653 63 90 0.0 3.0 0.00 0.00 0.00 52 1017.2
20170821072536 63 90 0.0 3.0 0.00 0.00 0.00 52 1017.2
20170821072528 63 90 0.0 3.0 0.00 0.00 0.00 52 1017.2
20170821072329 63 99 3.0 4.0 0.00 0.00 0.00 52 1017.2
20170821072127 63 99 3.0 4.0 0.00 0.00 0.00 52 1017.2
20170821071854 63 92 2.0 3.0 0.00 0.00 0.00 52 1017.2
20170821071726 63 92 2.0 3.0 0.00 0.00 0.00 52 1017.2
20170821071523 63 135 1.0 2.0 0.00 0.00 0.00 51 1017.3
20170821071327 63 135 1.0 2.0 0.00 0.00 0.00 51 1017.3
20170821071324 63 135 1.0 2.0 0.00 0.00 0.00 51 1017.3
20170821071135 63 92 2.0 3.0 0.00 0.00 0.00 51 1017.3
20170821070926 63 92 2.0 3.0 0.00 0.00 0.00 51 1017.3
20170821070523 63 90 0.0 1.0 0.00 0.00 0.00 51 1017.3
20170821070313 63 92 1.0 2.0 0.00 0.00 0.00 51 1017.4
20170821070126 63 92 1.0 2.0 0.00 0.00 0.00 51 1017.4
20170821070123 63 92 1.0 2.0 0.00 0.00 0.00 51 1017.4
20170821065917 63 99 2.0 4.0 0.00 0.00 0.00 51 1017.3
20170821065719 63 99 2.0 4.0 0.00 0.00 0.00 51 1017.3
20170821064515 62 112 2.0 3.0 0.00 0.00 0.00 51 1017.2
20170821064326 62 83 2.0 3.0 0.00 0.00 0.00 51 1017.2
20170821064118 62 83 2.0 3.0 0.00 0.00 0.00 51 1017.2
20170821064116 62 83 2.0 3.0 0.00 0.00 0.00 51 1017.2
20170821064114 62 83 2.0 3.0 0.00 0.00 0.00 51 1017.2
20170821063912 63 105 1.0 3.0 0.00 0.00 0.00 51 1017.1
20170821063720 63 105 1.0 3.0 0.00 0.00 0.00 51 1017.1
20170821063714 63 105 1.0 3.0 0.00 0.00 0.00 51 1017.1
20170821062317 63 99 1.0 3.0 0.00 0.00 0.00 50 1017.1
20170821062111 63 99 1.0 3.0 0.00 0.00 0.00 50 1017.1
20170821062107 63 99 1.0 3.0 0.00 0.00 0.00 50 1017.1
20170821061908 63 87 0.0 2.0 0.00 0.00 0.00 50 1017.1
20170821061706 63 87 0.0 2.0 0.00 0.00 0.00 50 1017.1
20170821061447 63 90 1.0 4.0 0.00 0.00 0.00 50 1017.1
20170821061305 63 90 1.0 4.0 0.00 0.00 0.00 50 1017.1
20170821061021 63 108 4.0 4.0 0.00 0.00 0.00 50 1017.1
20170821060944 63 108 4.0 4.0 0.00 0.00 0.00 50 1017.1
20170821060908 63 108 4.0 4.0 0.00 0.00 0.00 50 1017.1
20170821060904 63 108 4.0 4.0 0.00 0.00 0.00 50 1017.1
20170821060502 63 135 0.0 3.0 0.00 0.00 0.00 50 1017.1
20170821055736 63 65 0.0 5.0 0.00 0.00 0.00 49 1016.9
20170821055706 63 65 0.0 5.0 0.00 0.00 0.00 49 1016.9
20170821055701 63 65 0.0 5.0 0.00 0.00 0.00 49 1016.9
20170821055412 63 110 3.0 4.0 0.00 0.00 0.00 49 1016.9
20170821055302 63 110 3.0 4.0 0.00 0.00 0.00 49 1016.9
20170821055258 63 110 3.0 4.0 0.00 0.00 0.00 49 1016.9
20170821054946 63 81 1.0 4.0 0.00 0.00 0.00 49 1017.0
20170821054857 63 81 1.0 4.0 0.00 0.00 0.00 49 1017.0
20170821054639 63 132 2.0 5.0 0.00 0.00 0.00 49 1016.9
20170821054550 63 132 2.0 5.0 0.00 0.00 0.00 49 1016.9
20170821054456 63 132 2.0 5.0 0.00 0.00 0.00 49 1016.9
20170821054149 63 123 2.0 2.0 0.00 0.00 0.00 49 1017.0
20170821054054 63 123 2.0 2.0 0.00 0.00 0.00 49 1017.0
20170821053911 63 119 2.0 6.0 0.00 0.00 0.00 49 1016.9
20170821053748 63 119 2.0 6.0 0.00 0.00 0.00 49 1016.9
20170821053653 63 119 2.0 6.0 0.00 0.00 0.00 49 1016.9
20170821053328 63 86 1.0 6.0 0.00 0.00 0.00 49 1016.9
20170821053253 63 86 1.0 6.0 0.00 0.00 0.00 49 1016.9
20170821053251 63 86 1.0 6.0 0.00 0.00 0.00 49 1016.9
20170821052951 63 141 3.0 6.0 0.00 0.00 0.00 48 1016.9
20170821052850 63 141 3.0 6.0 0.00 0.00 0.00 48 1016.9
20170821052636 64 117 6.0 7.0 0.00 0.00 0.00 48 1016.9
20170821052530 64 117 6.0 7.0 0.00 0.00 0.00 48 1016.9
20170821052449 64 117 6.0 7.0 0.00 0.00 0.00 48 1016.9
20170821052317 64 108 1.0 4.0 0.00 0.00 0.00 48 1016.8
20170821052148 64 108 1.0 4.0 0.00 0.00 0.00 48 1016.8
20170821052052 64 108 1.0 4.0 0.00 0.00 0.00 48 1016.8
20170821052048 64 108 1.0 4.0 0.00 0.00 0.00 48 1016.8
20170821051847 64 108 1.0 6.0 0.00 0.00 0.00 48 1016.8
20170821051759 64 108 1.0 6.0 0.00 0.00 0.00 48 1016.8
20170821051647 64 108 1.0 6.0 0.00 0.00 0.00 48 1016.8
20170821051445 63 112 3.0 6.0 0.00 0.00 0.00 48 1016.7
20170821051320 63 112 3.0 6.0 0.00 0.00 0.00 48 1016.7
20170821051248 63 112 3.0 6.0 0.00 0.00 0.00 48 1016.7
20170821051245 63 112 3.0 6.0 0.00 0.00 0.00 48 1016.7
20170821051048 64 108 6.0 6.0 0.00 0.00 0.00 47 1016.7
20170821050918 64 108 6.0 6.0 0.00 0.00 0.00 47 1016.7
20170821050850 64 108 6.0 6.0 0.00 0.00 0.00 47 1016.7
20170821050843 64 108 6.0 6.0 0.00 0.00 0.00 47 1016.7
20170821050624 64 90 5.0 7.0 0.00 0.00 0.00 47 1016.6
20170821050539 64 90 5.0 7.0 0.00 0.00 0.00 47 1016.6
20170821050446 64 90 5.0 7.0 0.00 0.00 0.00 47 1016.6
20170821050442 64 90 5.0 7.0 0.00 0.00 0.00 47 1016.6
20170821050208 64 94 6.0 8.0 0.00 0.00 0.00 47 1016.6
20170821050132 64 94 6.0 8.0 0.00 0.00 0.00 47 1016.6
20170821050046 64 94 6.0 8.0 0.00 0.00 0.00 47 1016.6
20170821050041 64 94 6.0 8.0 0.00 0.00 0.00 47 1016.6
20170821045836 64 90 6.0 8.0 0.00 0.00 0.00 47 1016.5
20170821045730 64 90 6.0 8.0 0.00 0.00 0.00 47 1016.5
20170821045640 64 90 6.0 8.0 0.00 0.00 0.00 47 1016.5
20170821045434 64 90 6.0 7.0 0.00 0.00 0.00 46 1016.4
20170821045332 64 90 6.0 7.0 0.00 0.00 0.00 46 1016.4
20170821045242 64 90 6.0 7.0 0.00 0.00 0.00 46 1016.4
20170821045239 64 90 6.0 7.0 0.00 0.00 0.00 46 1016.4
20170821045027 64 96 7.0 7.0 0.00 0.00 0.00 46 1016.3
20170821044919 64 96 7.0 7.0 0.00 0.00 0.00 46 1016.3
20170821044837 64 96 7.0 7.0 0.00 0.00 0.00 46 1016.3
20170821044605 64 94 5.0 7.0 0.00 0.00 0.00 46 1016.3
20170821044527 64 94 5.0 7.0 0.00 0.00 0.00 46 1016.3
20170821044439 64 94 5.0 7.0 0.00 0.00 0.00 46 1016.3
20170821044435 64 94 5.0 7.0 0.00 0.00 0.00 46 1016.3
20170821044149 64 94 7.0 8.0 0.00 0.00 0.00 46 1016.3
20170821044039 64 94 7.0 8.0 0.00 0.00 0.00 46 1016.3
20170821044034 64 94 7.0 8.0 0.00 0.00 0.00 46 1016.3
20170821043858 64 96 6.0 6.0 0.00 0.00 0.00 45 1016.3
20170821043802 64 96 6.0 6.0 0.00 0.00 0.00 45 1016.3
20170821043639 64 96 6.0 6.0 0.00 0.00 0.00 45 1016.3
20170821043634 64 96 6.0 6.0 0.00 0.00 0.00 45 1016.3
20170821043426 64 96 4.0 5.0 0.00 0.00 0.00 45 1016.2
20170821043315 64 96 4.0 5.0 0.00 0.00 0.00 45 1016.2
20170821043238 64 96 4.0 5.0 0.00 0.00 0.00 45 1016.2
20170821043233 64 96 4.0 5.0 0.00 0.00 0.00 45 1016.2
20170821043100 65 105 4.0 6.0 0.00 0.00 0.00 45 1016.1
20170821042921 65 105 4.0 6.0 0.00 0.00 0.00 45 1016.1
20170821042834 65 105 4.0 6.0 0.00 0.00 0.00 45 1016.1
20170821042831 65 105 4.0 6.0 0.00 0.00 0.00 45 1016.1
20170821042429 64 90 5.0 6.0 0.00 0.00 0.00 44 1016.2
20170821042236 65 94 5.0 5.0 0.00 0.00 0.00 44 1016.0
20170821042122 65 94 5.0 5.0 0.00 0.00 0.00 44 1016.0
20170821042031 65 94 5.0 5.0 0.00 0.00 0.00 44 1016.0
20170821042027 65 94 5.0 5.0 0.00 0.00 0.00 44 1016.0
20170821041837 65 90 4.0 4.0 0.00 0.00 0.00 44 1016.0
20170821041704 65 90 4.0 4.0 0.00 0.00 0.00 44 1016.0
20170821041632 65 90 4.0 4.0 0.00 0.00 0.00 44 1016.0
20170821041626 65 90 4.0 4.0 0.00 0.00 0.00 44 1016.0
20170821041440 65 90 3.0 3.0 0.00 0.00 0.00 44 1015.9
20170821041317 65 90 3.0 3.0 0.00 0.00 0.00 44 1015.9
20170821041228 65 90 3.0 3.0 0.00 0.00 0.00 44 1015.9
20170821041225 65 90 3.0 3.0 0.00 0.00 0.00 44 1015.9
20170821041035 66 85 3.0 3.0 0.00 0.00 0.00 44 1016.0
20170821040917 66 85 3.0 3.0 0.00 0.00 0.00 44 1016.0
20170821040828 66 85 3.0 3.0 0.00 0.00 0.00 44 1016.0
20170821040825 66 85 3.0 3.0 0.00 0.00 0.00 44 1016.0
20170821040601 66 96 3.0 5.0 0.00 0.00 0.00 43 1016.0
20170821040505 66 96 3.0 5.0 0.00 0.00 0.00 43 1016.0
20170821040423 66 96 3.0 5.0 0.00 0.00 0.00 43 1016.0
20170821040129 66 105 5.0 7.0 0.00 0.00 0.00 43 1015.9
20170821040022 66 105 5.0 7.0 0.00 0.00 0.00 43 1015.9
20170821035758 66 119 5.0 7.0 0.00 0.00 0.00 43 1015.9
20170821035620 66 119 5.0 7.0 0.00 0.00 0.00 43 1015.9
20170821035343 66 270 1.0 3.0 0.00 0.00 0.00 42 1015.8
20170821035300 66 270 1.0 3.0 0.00 0.00 0.00 42 1015.8
20170821035220 66 270 1.0 3.0 0.00 0.00 0.00 42 1015.8
20170821035218 66 270 1.0 3.0 0.00 0.00 0.00 42 1015.8
20170821034621 66 103 5.0 8.0 0.00 0.00 0.00 42 1015.7
20170821034540 66 103 5.0 8.0 0.00 0.00 0.00 42 1015.7
20170821034420 66 103 5.0 8.0 0.00 0.00 0.00 42 1015.7
20170821034416 66 103 5.0 8.0 0.00 0.00 0.00 42 1015.7
20170821034209 66 103 6.0 7.0 0.00 0.00 0.00 42 1015.6
20170821034115 66 103 6.0 7.0 0.00 0.00 0.00 42 1015.6
20170821034015 66 103 6.0 7.0 0.00 0.00 0.00 42 1015.6
20170821033840 66 101 6.0 7.0 0.00 0.00 0.00 41 1015.5
20170821033650 66 101 6.0 7.0 0.00 0.00 0.00 41 1015.5
20170821033620 66 101 6.0 7.0 0.00 0.00 0.00 41 1015.5
20170821033613 66 101 6.0 7.0 0.00 0.00 0.00 41 1015.5
20170821033418 66 92 5.0 7.0 0.00 0.00 0.00 41 1015.5
20170821033316 66 92 5.0 7.0 0.00 0.00 0.00 41 1015.5
20170821033222 66 92 5.0 7.0 0.00 0.00 0.00 41 1015.5
20170821033214 66 92 5.0 7.0 0.00 0.00 0.00 41 1015.5
20170821033027 66 90 5.0 8.0 0.00 0.00 0.00 40 1015.4
20170821032911 66 90 5.0 8.0 0.00 0.00 0.00 40 1015.4
20170821032810 66 90 5.0 8.0 0.00 0.00 0.00 40 1015.4
20170821032618 67 92 6.0 7.0 0.00 0.00 0.00 40 1015.3
20170821032515 67 92 6.0 7.0 0.00 0.00 0.00 40 1015.3
20170821032414 67 92 6.0 7.0 0.00 0.00 0.00 40 1015.3
20170821032412 67 92 6.0 7.0 0.00 0.00 0.00 40 1015.3
20170821032059 67 90 5.0 7.0 0.00 0.00 0.00 40 1015.3
20170821032008 67 90 5.0 7.0 0.00 0.00 0.00 40 1015.3
20170821031812 67 99 5.0 7.0 0.00 0.00 0.00 39 1015.4
20170821031607 67 99 5.0 7.0 0.00 0.00 0.00 39 1015.4
20170821031205 67 92 8.0 9.0 0.00 0.00 0.00 39 1015.2
20170821030949 67 87 6.0 7.0 0.00 0.00 0.00 39 1015.2
20170821030847 67 87 6.0 7.0 0.00 0.00 0.00 39 1015.2
20170821030806 67 87 6.0 7.0 0.00 0.00 0.00 39 1015.2
20170821030522 67 99 4.0 5.0 0.00 0.00 0.00 38 1015.2
20170821030410 67 99 4.0 5.0 0.00 0.00 0.00 38 1015.2
20170821030407 67 99 4.0 5.0 0.00 0.00 0.00 38 1015.2
20170821030403 67 99 4.0 5.0 0.00 0.00 0.00 38 1015.2
20170821030236 67 87 4.0 5.0 0.00 0.00 0.00 38 1015.1
20170821030125 67 87 4.0 5.0 0.00 0.00 0.00 38 1015.1
20170821030011 67 87 4.0 5.0 0.00 0.00 0.00 38 1015.1
20170821030009 67 87 4.0 5.0 0.00 0.00 0.00 38 1015.1
20170821025738 67 119 6.0 7.0 0.00 0.00 0.00 37 1015.1
20170821025636 67 119 6.0 7.0 0.00 0.00 0.00 37 1015.1
20170821025601 67 119 6.0 7.0 0.00 0.00 0.00 37 1015.1
20170821025357 67 96 4.0 7.0 0.00 0.00 0.00 37 1015.0
20170821025309 67 96 4.0 7.0 0.00 0.00 0.00 37 1015.0
20170821025159 67 96 4.0 7.0 0.00 0.00 0.00 37 1015.0
20170821024205 69 101 7.0 7.0 0.00 0.00 0.00 36 1014.9
20170821024106 69 101 7.0 7.0 0.00 0.00 0.00 36 1014.9
20170821023955 69 101 7.0 7.0 0.00 0.00 0.00 36 1014.9
20170821023759 69 157 1.0 5.0 0.00 0.00 0.00 35 1014.8
20170821023639 69 157 1.0 5.0 0.00 0.00 0.00 35 1014.8
20170821023557 69 157 1.0 5.0 0.00 0.00 0.00 35 1014.8
20170821023553 69 157 1.0 5.0 0.00 0.00 0.00 35 1014.8
20170821023309 69 123 4.0 8.0 0.00 0.00 0.00 35 1014.8
20170821023157 69 123 4.0 8.0 0.00 0.00 0.00 35 1014.8
20170821023152 69 123 4.0 8.0 0.00 0.00 0.00 35 1014.8
20170821023003 69 105 7.0 10.0 0.00 0.00 0.00 34 1014.8
20170821022901 69 105 7.0 10.0 0.00 0.00 0.00 34 1014.8
20170821022755 69 105 7.0 10.0 0.00 0.00 0.00 34 1014.8
20170821022751 69 105 7.0 10.0 0.00 0.00 0.00 34 1014.8
20170821022537 69 117 5.0 11.0 0.00 0.00 0.00 34 1014.5
20170821022425 69 117 5.0 11.0 0.00 0.00 0.00 34 1014.5
20170821022357 69 117 5.0 11.0 0.00 0.00 0.00 34 1014.5
20170821022352 69 117 5.0 11.0 0.00 0.00 0.00 34 1014.5
20170821021825 70 112 10.0 10.0 0.00 0.00 0.00 33 1014.4
20170821021646 70 112 10.0 10.0 0.00 0.00 0.00 33 1014.4
20170821021550 70 112 10.0 10.0 0.00 0.00 0.00 33 1014.4
20170821021548 70 112 10.0 10.0 0.00 0.00 0.00 33 1014.4
20170821021343 70 109 5.0 10.0 0.00 0.00 0.00 33 1014.3
20170821021242 70 109 5.0 10.0 0.00 0.00 0.00 33 1014.3
20170821021151 70 109 5.0 10.0 0.00 0.00 0.00 33 1014.3
20170821021146 70 109 5.0 10.0 0.00 0.00 0.00 33 1014.3
20170821020956 70 121 8.0 11.0 0.00 0.00 0.00 33 1014.3
20170821020829 70 121 8.0 11.0 0.00 0.00 0.00 33 1014.3
20170821020748 70 121 8.0 11.0 0.00 0.00 0.00 33 1014.3
20170821020744 70 121 8.0 11.0 0.00 0.00 0.00 33 1014.3
20170821020542 71 114 7.0 10.0 0.00 0.00 0.00 32 1014.2
20170821020447 71 114 7.0 10.0 0.00 0.00 0.00 32 1014.2
20170821020343 71 114 7.0 10.0 0.00 0.00 0.00 32 1014.2
20170821020156 71 110 10.0 10.0 0.00 0.00 0.00 32 1014.2
20170821020018 71 110 10.0 10.0 0.00 0.00 0.00 32 1014.2
20170821015942 71 110 10.0 10.0 0.00 0.00 0.00 32 1014.2
20170821015627 72 117 9.0 9.0 0.00 0.00 0.00 32 1014.1
20170821015540 72 117 9.0 9.0 0.00 0.00 0.00 32 1014.1
20170821015330 73 127 5.0 9.0 0.00 0.00 0.00 32 1014.2
20170821015228 73 127 5.0 9.0 0.00 0.00 0.00 32 1014.2
20170821015143 73 127 5.0 9.0 0.00 0.00 0.00 32 1014.2
20170821015139 73 127 5.0 9.0 0.00 0.00 0.00 32 1014.2
20170821014841 73 119 9.0 9.0 0.00 0.00 0.00 31 1014.1
20170821014739 73 119 9.0 9.0 0.00 0.00 0.00 31 1014.1
20170821014510 75 137 1.0 6.0 0.00 0.00 0.00 31 1014.1
20170821014425 75 137 1.0 6.0 0.00 0.00 0.00 31 1014.1
20170821014341 75 137 1.0 6.0 0.00 0.00 0.00 31 1014.1
20170821014337 75 137 1.0 6.0 0.00 0.00 0.00 31 1014.1
20170821014100 76 182 4.0 4.0 0.00 0.00 0.00 31 1014.1
20170821014020 76 182 4.0 4.0 0.00 0.00 0.00 31 1014.1
20170821013938 76 182 4.0 4.0 0.00 0.00 0.00 31 1014.1
20170821013935 76 182 4.0 4.0 0.00 0.00 0.00 31 1014.1
20170821013630 75 99 2.0 7.0 0.00 0.00 0.00 31 1014.0
20170821013534 75 99 2.0 7.0 0.00 0.00 0.00 31 1014.0
20170821013230 75 98 3.0 4.0 0.00 0.00 0.00 30 1014.0
20170821013138 75 98 3.0 4.0 0.00 0.00 0.00 30 1014.0
20170821013136 75 98 3.0 4.0 0.00 0.00 0.00 30 1014.0
20170821012926 74 119 9.0 12.0 0.00 0.00 0.00 30 1013.8
20170821012829 74 119 9.0 12.0 0.00 0.00 0.00 30 1013.8
20170821012735 74 119 9.0 12.0 0.00 0.00 0.00 30 1013.8
20170821012733 74 119 9.0 12.0 0.00 0.00 0.00 30 1013.8
20170821012731 74 119 9.0 12.0 0.00 0.00 0.00 30 1013.8
20170821012454 74 103 7.0 11.0 0.00 0.00 0.00 30 1013.9
20170821012410 74 103 7.0 11.0 0.00 0.00 0.00 30 1013.9
20170821012333 74 103 7.0 11.0 0.00 0.00 0.00 30 1013.9
20170821012331 74 103 7.0 11.0 0.00 0.00 0.00 30 1013.9
20170821012010 74 105 6.0 11.0 0.00 0.00 0.00 30 1013.9
20170821011929 74 105 6.0 11.0 0.00 0.00 0.00 30 1013.9
20170821011742 74 110 7.0 12.0 0.00 0.00 0.00 29 1013.9
20170821011633 74 110 7.0 12.0 0.00 0.00 0.00 29 1013.9
20170821011530 74 110 7.0 12.0 0.00 0.00 0.00 29 1013.9
20170821011528 74 110 7.0 12.0 0.00 0.00 0.00 29 1013.9
20170821011320 75 101 6.0 10.0 0.00 0.00 0.00 29 1013.8
20170821011219 75 101 6.0 10.0 0.00 0.00 0.00 29 1013.8
20170821011126 75 101 6.0 10.0 0.00 0.00 0.00 29 1013.8
20170821010923 76 132 6.0 11.0 0.00 0.00 0.00 29 1013.8
20170821010814 76 132 6.0 11.0 0.00 0.00 0.00 29 1013.8
20170821010726 76 132 6.0 11.0 0.00 0.00 0.00 29 1013.8
20170821010724 76 132 6.0 11.0 0.00 0.00 0.00 29 1013.8
20170821010510 76 114 9.0 9.0 0.00 0.00 0.00 29 1013.8
20170821010327 76 114 9.0 9.0 0.00 0.00 0.00 29 1013.8
20170821010325 76 114 9.0 9.0 0.00 0.00 0.00 29 1013.8
20170821010112 76 114 12.0 12.0 0.00 0.00 0.00 28 1013.7
20170821010000 76 114 12.0 12.0 0.00 0.00 0.00 28 1013.7
20170821005927 76 114 12.0 12.0 0.00 0.00 0.00 28 1013.7
20170821005922 76 114 12.0 12.0 0.00 0.00 0.00 28 1013.7
20170821005718 77 130 6.0 10.0 0.00 0.00 0.00 28 1013.7
20170821005603 77 130 6.0 10.0 0.00 0.00 0.00 28 1013.7
20170821005525 77 130 6.0 10.0 0.00 0.00 0.00 28 1013.7
20170821005521 77 130 6.0 10.0 0.00 0.00 0.00 28 1013.7
20170821005258 77 132 7.0 12.0 0.00 0.00 0.00 28 1013.7
20170821005154 77 132 7.0 12.0 0.00 0.00 0.00 28 1013.7
20170821005124 77 132 7.0 12.0 0.00 0.00 0.00 28 1013.7
20170821005120 77 132 7.0 12.0 0.00 0.00 0.00 28 1013.7
20170821004902 78 121 8.0 13.0 0.00 0.00 0.00 28 1013.7
20170821004816 78 121 8.0 13.0 0.00 0.00 0.00 28 1013.7
20170821004718 78 121 8.0 13.0 0.00 0.00 0.00 28 1013.7
20170821004446 79 112 7.0 9.0 0.00 0.00 0.00 28 1013.6
20170821004358 79 112 7.0 9.0 0.00 0.00 0.00 28 1013.6
20170821004322 79 112 7.0 9.0 0.00 0.00 0.00 28 1013.6
20170821004316 79 112 7.0 9.0 0.00 0.00 0.00 28 1013.6
20170821004057 80 115 4.0 10.0 0.00 0.00 0.00 28 1013.6
20170821003922 80 115 4.0 10.0 0.00 0.00 0.00 28 1013.6
20170821003915 80 115 4.0 10.0 0.00 0.00 0.00 28 1013.6
20170821003303 81 125 6.0 11.0 0.00 0.00 0.00 27 1013.5
20170821003156 81 125 6.0 11.0 0.00 0.00 0.00 27 1013.5
20170821003115 81 125 6.0 11.0 0.00 0.00 0.00 27 1013.5
20170821003113 81 125 6.0 11.0 0.00 0.00 0.00 27 1013.5
20170821002844 81 119 6.0 10.0 0.00 0.00 0.00 27 1013.5
20170821002752 81 119 6.0 10.0 0.00 0.00 0.00 27 1013.5
20170821002716 81 119 6.0 10.0 0.00 0.00 0.00 27 1013.5
20170821002713 81 119 6.0 10.0 0.00 0.00 0.00 27 1013.5
20170821002455 81 126 6.0 10.0 0.00 0.00 0.00 27 1013.4
20170821002359 81 126 6.0 10.0 0.00 0.00 0.00 27 1013.4
20170821002313 81 126 6.0 10.0 0.00 0.00 0.00 27 1013.4
20170821002310 81 126 6.0 10.0 0.00 0.00 0.00 27 1013.4
20170821002115 83 110 10.0 11.0 0.00 0.00 0.00 27 1013.4
20170821001951 83 110 10.0 11.0 0.00 0.00 0.00 27 1013.4
20170821001912 83 110 10.0 11.0 0.00 0.00 0.00 27 1013.4
20170821001908 83 110 10.0 11.0 0.00 0.00 0.00 27 1013.4
20170821001634 82 103 7.0 12.0 0.00 0.00 0.00 27 1013.4
20170821001542 82 103 7.0 12.0 0.00 0.00 0.00 27 1013.4
20170821001514 82 103 7.0 12.0 0.00 0.00 0.00 27 1013.4
20170821001507 82 103 7.0 12.0 0.00 0.00 0.00 27 1013.4
20170821001227 84 112 9.0 12.0 0.00 0.00 0.00 27 1013.4
20170821001138 84 112 9.0 12.0 0.00 0.00 0.00 27 1013.4
20170821001112 84 112 9.0 12.0 0.00 0.00 0.00 27 1013.4
20170821001106 84 112 9.0 12.0 0.00 0.00 0.00 27 1013.4
20170821000841 85 139 4.0 7.0 0.00 0.00 0.00 27 1013.3
20170821000751 85 139 4.0 7.0 0.00 0.00 0.00 27 1013.3
20170821000710 85 139 4.0 7.0 0.00 0.00 0.00 27 1013.3
20170821000705 85 139 4.0 7.0 0.00 0.00 0.00 27 1013.3
20170821000503 85 105 5.0 5.0 0.00 0.00 0.00 27 1013.4
20170821000346 85 105 5.0 5.0 0.00 0.00 0.00 27 1013.4
20170821000308 85 105 5.0 5.0 0.00 0.00 0.00 27 1013.4
20170821000306 85 105 5.0 5.0 0.00 0.00 0.00 27 1013.4
20170821000304 85 105 5.0 5.0 0.00 0.00 0.00 27 1013.4
20170821000106 84 135 8.0 11.0 0.00 0.00 0.00 27 1013.4
20170820235948 84 135 8.0 11.0 0.00 0.00 0.00 27 1013.4
20170820235902 84 135 8.0 11.0 0.00 0.00 0.00 27 1013.4
20170820235655 84 118 5.0 10.0 0.00 0.00 0.00 27 1013.3
20170820235535 84 118 5.0 10.0 0.00 0.00 0.00 27 1013.3
20170820235506 84 118 5.0 10.0 0.00 0.00 0.00 27 1013.3
20170820235501 84 118 5.0 10.0 0.00 0.00 0.00 27 1013.3
20170820235241 85 112 9.0 11.0 0.00 0.00 0.00 27 1013.3
20170820235147 85 112 9.0 11.0 0.00 0.00 0.00 27 1013.3
20170820235106 85 112 9.0 11.0 0.00 0.00 0.00 27 1013.3
20170820235059 85 112 9.0 11.0 0.00 0.00 0.00 27 1013.3
20170820234737 84 112 6.0 10.0 0.00 0.00 0.00 27 1013.3
20170820234659 84 112 6.0 10.0 0.00 0.00 0.00 27 1013.3
20170820234528 85 114 6.0 12.0 0.00 0.00 0.00 27 1013.3
20170820234338 85 114 6.0 12.0 0.00 0.00 0.00 27 1013.3
20170820234301 85 114 6.0 12.0 0.00 0.00 0.00 27 1013.3
20170820234257 85 114 6.0 12.0 0.00 0.00 0.00 27 1013.3
20170820234027 85 97 6.0 10.0 0.00 0.00 0.00 27 1013.4
20170820233938 85 97 6.0 10.0 0.00 0.00 0.00 27 1013.4
20170820233900 85 97 6.0 10.0 0.00 0.00 0.00 27 1013.4
20170820233856 85 97 6.0 10.0 0.00 0.00 0.00 27 1013.4
20170820233454 86 112 8.0 11.0 0.00 0.00 0.00 27 1013.4
20170820233233 89 264 1.0 9.0 0.00 0.00 0.00 28 1013.4
20170820233132 89 264 1.0 9.0 0.00 0.00 0.00 28 1013.4
20170820233053 89 264 1.0 9.0 0.00 0.00 0.00 28 1013.4
20170820232832 90 202 3.0 6.0 0.00 0.00 0.00 28 1013.4
20170820232727 90 202 3.0 6.0 0.00 0.00 0.00 28 1013.4
20170820232655 90 202 3.0 6.0 0.00 0.00 0.00 28 1013.4
20170820232652 90 202 3.0 6.0 0.00 0.00 0.00 28 1013.4
20170820232426 90 120 4.0 6.0 0.00 0.00 0.00 28 1013.5
20170820232330 90 120 4.0 6.0 0.00 0.00 0.00 28 1013.5
20170820232250 90 120 4.0 6.0 0.00 0.00 0.00 28 1013.5
20170820231701 90 82 2.0 6.0 0.00 0.00 0.00 27 1013.5
20170820231521 90 82 2.0 6.0 0.00 0.00 0.00 27 1013.5
20170820231449 90 82 2.0 6.0 0.00 0.00 0.00 27 1013.5
20170820231219 89 173 4.0 5.0 0.00 0.00 0.00 27 1013.5
20170820231125 89 173 4.0 5.0 0.00 0.00 0.00 27 1013.5
20170820231046 89 173 4.0 5.0 0.00 0.00 0.00 27 1013.5
20170820230824 88 215 3.0 8.0 0.00 0.00 0.00 27 1013.7
20170820230725 88 215 3.0 8.0 0.00 0.00 0.00 27 1013.7
20170820230649 88 215 3.0 8.0 0.00 0.00 0.00 27 1013.7
20170820230645 88 215 3.0 8.0 0.00 0.00 0.00 27 1013.7
20170820230429 86 182 6.0 11.0 0.00 0.00 0.00 28 1013.7
20170820230346 86 182 6.0 11.0 0.00 0.00 0.00 28 1013.7
20170820230247 86 182 6.0 11.0 0.00 0.00 0.00 28 1013.7
20170820230243 86 182 6.0 11.0 0.00 0.00 0.00 28 1013.7
20170820230034 85 92 6.0 12.0 0.00 0.00 0.00 29 1013.7
20170820225929 85 92 6.0 12.0 0.00 0.00 0.00 29 1013.7
20170820225847 85 92 6.0 12.0 0.00 0.00 0.00 29 1013.7
20170820225845 85 92 6.0 12.0 0.00 0.00 0.00 29 1013.7
20170820225211 87 99 10.0 12.0 0.00 0.00 0.00 29 1013.7
20170820225115 87 99 10.0 12.0 0.00 0.00 0.00 29 1013.7
20170820225044 87 99 10.0 12.0 0.00 0.00 0.00 29 1013.7
20170820225040 87 99 10.0 12.0 0.00 0.00 0.00 29 1013.7
20170820224839 88 87 10.0 12.0 0.00 0.00 0.00 29 1013.7
20170820224723 88 87 10.0 12.0 0.00 0.00 0.00 29 1013.7
20170820224642 88 87 10.0 12.0 0.00 0.00 0.00 29 1013.7
20170820224638 88 87 10.0 12.0 0.00 0.00 0.00 29 1013.7
20170820224354 92 180 6.0 8.0 0.00 0.00 0.00 29 1013.7
20170820224314 92 180 6.0 8.0 0.00 0.00 0.00 29 1013.7
20170820224237 92 180 6.0 8.0 0.00 0.00 0.00 29 1013.7
20170820224021 92 90 6.0 7.0 0.00 0.00 0.00 30 1013.8
20170820223931 92 90 6.0 7.0 0.00 0.00 0.00 30 1013.8
20170820223840 92 90 6.0 7.0 0.00 0.00 0.00 30 1013.8
20170820223836 92 90 6.0 7.0 0.00 0.00 0.00 30 1013.8
20170820223608 92 177 2.0 8.0 0.00 0.00 0.00 30 1013.9
20170820223441 92 177 2.0 8.0 0.00 0.00 0.00 30 1013.9
20170820223434 92 177 2.0 8.0 0.00 0.00 0.00 30 1013.9
20170820223244 93 117 7.0 9.0 0.00 0.00 0.00 30 1013.9
20170820223039 93 117 7.0 9.0 0.00 0.00 0.00 30 1013.9
20170820223033 93 117 7.0 9.0 0.00 0.00 0.00 30 1013.9
20170820222812 94 218 3.0 8.0 0.00 0.00 0.00 30 1013.8
20170820222712 94 218 3.0 8.0 0.00 0.00 0.00 30 1013.8
20170820222639 94 218 3.0 8.0 0.00 0.00 0.00 30 1013.8
20170820222637 94 218 3.0 8.0 0.00 0.00 0.00 30 1013.8
20170820222633 94 218 3.0 8.0 0.00 0.00 0.00 30 1013.8
20170820222412 94 187 4.0 6.0 0.00 0.00 0.00 30 1013.9
20170820222307 94 187 4.0 6.0 0.00 0.00 0.00 30 1013.9
20170820222235 94 187 4.0 6.0 0.00 0.00 0.00 30 1013.9
20170820222231 94 187 4.0 6.0 0.00 0.00 0.00 30 1013.9
20170820221952 93 157 1.0 4.0 0.00 0.00 0.00 30 1013.9
20170820221905 93 157 1.0 4.0 0.00 0.00 0.00 30 1013.9
20170820221830 93 157 1.0 4.0 0.00 0.00 0.00 30 1013.9
20170820221428 93 184 3.0 7.0 0.00 0.00 0.00 30 1013.8
20170820221219 93 97 3.0 6.0 0.00 0.00 0.00 30 1013.9
20170820221031 93 97 3.0 6.0 0.00 0.00 0.00 30 1013.9
20170820221028 93 97 3.0 6.0 0.00 0.00 0.00 30 1013.9
20170820220814 94 184 4.0 8.0 0.00 0.00 0.00 30 1013.9
20170820220712 94 184 4.0 8.0 0.00 0.00 0.00 30 1013.9
20170820220625 94 184 4.0 8.0 0.00 0.00 0.00 30 1013.9
20170820220257 94 157 2.0 7.0 0.00 0.00 0.00 30 1014.0
20170820220224 94 157 2.0 7.0 0.00 0.00 0.00 30 1014.0
20170820215955 93 140 3.0 5.0 0.00 0.00 0.00 30 1014.1
20170820215826 93 140 3.0 5.0 0.00 0.00 0.00 30 1014.1
20170820215607 93 177 2.0 7.0 0.00 0.00 0.00 31 1014.1
20170820215421 93 177 2.0 7.0 0.00 0.00 0.00 31 1014.1
20170820215243 93 146 2.0 8.0 0.00 0.00 0.00 31 1014.2
20170820215124 93 146 2.0 8.0 0.00 0.00 0.00 31 1014.2
20170820215051 93 146 2.0 8.0 0.00 0.00 0.00 31 1014.2
20170820215024 93 146 2.0 8.0 0.00 0.00 0.00 31 1014.2
20170820215020 93 146 2.0 8.0 0.00 0.00 0.00 31 1014.2
20170820214805 91 109 6.0 9.0 0.00 0.00 0.00 31 1014.3
20170820214702 91 109 6.0 9.0 0.00 0.00 0.00 31 1014.3
20170820214624 91 109 6.0 9.0 0.00 0.00 0.00 31 1014.3
20170820214622 91 109 6.0 9.0 0.00 0.00 0.00 31 1014.3
20170820214619 91 109 6.0 9.0 0.00 0.00 0.00 31 1014.3
20170820213916 94 165 4.0 9.0 0.00 0.00 0.00 31 1014.3
20170820213816 94 165 4.0 9.0 0.00 0.00 0.00 31 1014.3
20170820213602 93 184 4.0 8.0 0.00 0.00 0.00 31 1014.4
20170820213451 93 184 4.0 8.0 0.00 0.00 0.00 31 1014.4
20170820213420 93 184 4.0 8.0 0.00 0.00 0.00 31 1014.4
20170820213415 93 184 4.0 8.0 0.00 0.00 0.00 31 1014.4
20170820213201 92 180 2.0 9.0 0.00 0.00 0.00 31 1014.4
20170820213052 92 180 2.0 9.0 0.00 0.00 0.00 31 1014.4
20170820213018 92 180 2.0 9.0 0.00 0.00 0.00 31 1014.4
20170820213013 92 180 2.0 9.0 0.00 0.00 0.00 31 1014.4
20170820212211 93 200 4.0 8.0 0.00 0.00 0.00 31 1014.5
20170820211921 93 216 6.0 8.0 0.00 0.00 0.00 32 1014.5
20170820211844 93 216 6.0 8.0 0.00 0.00 0.00 32 1014.5
20170820211810 93 216 6.0 8.0 0.00 0.00 0.00 32 1014.5
20170820211517 92 157 4.0 11.0 0.00 0.00 0.00 32 1014.7
20170820211408 92 157 4.0 11.0 0.00 0.00 0.00 32 1014.7
20170820211104 91 126 3.0 6.0 0.00 0.00 0.00 32 1014.7
20170820211008 91 126 3.0 6.0 0.00 0.00 0.00 32 1014.7
20170820210742 90 200 3.0 6.0 0.00 0.00 0.00 32 1014.7
20170820210644 90 200 3.0 6.0 0.00 0.00 0.00 32 1014.7
20170820210607 90 200 3.0 6.0 0.00 0.00 0.00 32 1014.7
20170820210605 90 200 3.0 6.0 0.00 0.00 0.00 32 1014.7
20170820210324 92 130 6.0 8.0 0.00 0.00 0.00 32 1014.8
20170820210305 65 15 0.0 1.0 0.00 0.00 0.00 52 1016.2
20170820210208 92 130 6.0 8.0 0.00 0.00 0.00 32 1014.8
20170820210204 92 130 6.0 8.0 0.00 0.00 0.00 32 1014.8
20170820205941 93 204 3.0 10.0 0.00 0.00 0.00 32 1014.8
20170820205803 93 204 3.0 10.0 0.00 0.00 0.00 32 1014.8
20170820205528 92 180 3.0 10.0 0.00 0.00 0.00 32 1014.9
20170820205407 92 180 3.0 10.0 0.00 0.00 0.00 32 1014.9
20170820205405 92 180 3.0 10.0 0.00 0.00 0.00 32 1014.9
20170820205125 92 184 7.0 9.0 0.00 0.00 0.00 33 1014.9
20170820205007 92 184 7.0 9.0 0.00 0.00 0.00 33 1014.9
20170820205001 92 184 7.0 9.0 0.00 0.00 0.00 33 1014.9
20170820204728 91 209 7.0 12.0 0.00 0.00 0.00 33 1014.9
20170820204559 91 209 7.0 12.0 0.00 0.00 0.00 33 1014.9
20170820204157 90 48 2.0 9.0 0.00 0.00 0.00 33 1015.0
20170820203941 89 84 2.0 8.0 0.00 0.00 0.00 33 1015.0
20170820203756 89 84 2.0 8.0 0.00 0.00 0.00 33 1015.0
20170820203552 89 96 8.0 8.0 0.00 0.00 0.00 33 1014.9
20170820203400 89 96 8.0 8.0 0.00 0.00 0.00 33 1014.9
20170820203355 89 96 8.0 8.0 0.00 0.00 0.00 33 1014.9
20170820202954 93 195 4.0 4.0 0.00 0.00 0.00 34 1015.0
20170820202557 92 204 3.0 3.0 0.00 0.00 0.00 34 1015.1
20170820202553 92 204 3.0 3.0 0.00 0.00 0.00 34 1015.1
20170820202323 92 283 1.0 5.0 0.00 0.00 0.00 34 1015.2
20170820202157 92 283 1.0 5.0 0.00 0.00 0.00 34 1015.2
20170820202151 92 283 1.0 5.0 0.00 0.00 0.00 34 1015.2
20170820201913 91 92 3.0 6.0 0.00 0.00 0.00 34 1015.3
20170820201754 91 92 3.0 6.0 0.00 0.00 0.00 34 1015.3
20170820201749 91 92 3.0 6.0 0.00 0.00 0.00 34 1015.3
20170820201535 92 180 5.0 7.0 0.00 0.00 0.00 34 1015.3
20170820201353 92 180 5.0 7.0 0.00 0.00 0.00 34 1015.3
20170820201348 92 180 5.0 7.0 0.00 0.00 0.00 34 1015.3
20170820200947 91 180 6.0 8.0 0.00 0.00 0.00 34 1015.4
20170820200546 90 195 8.0 9.0 0.00 0.00 0.00 35 1015.3
20170820195743 90 238 3.0 7.0 0.00 0.00 0.00 35 1015.5
20170820195215 87 225 1.0 6.0 0.00 0.00 0.00 35 1015.6
20170820194940 87 225 1.0 6.0 0.00 0.00 0.00 35 1015.6
20170820194312 84 87 6.0 10.0 0.00 0.00 0.00 36 1015.6
20170820194143 84 87 6.0 10.0 0.00 0.00 0.00 36 1015.6
20170820194138 84 87 6.0 10.0 0.00 0.00 0.00 36 1015.6
20170820193855 85 105 5.0 7.0 0.00 0.00 0.00 36 1015.7
20170820193746 85 105 5.0 7.0 0.00 0.00 0.00 36 1015.7
20170820193737 85 105 5.0 7.0 0.00 0.00 0.00 36 1015.7
20170820193337 84 90 6.0 11.0 0.00 0.00 0.00 36 1015.7
20170820193132 85 90 3.0 12.0 0.00 0.00 0.00 37 1015.7
20170820192934 85 90 3.0 12.0 0.00 0.00 0.00 37 1015.7
20170820192258 86 60 6.0 8.0 0.00 0.00 0.00 37 1015.9
20170820192135 86 60 6.0 8.0 0.00 0.00 0.00 37 1015.9
20170820192131 86 60 6.0 8.0 0.00 0.00 0.00 37 1015.9
20170820191852 87 193 3.0 7.0 0.00 0.00 0.00 38 1015.9
20170820191730 87 193 3.0 7.0 0.00 0.00 0.00 38 1015.9
20170820191329 86 225 5.0 6.0 0.00 0.00 0.00 38 1015.9
20170820191052 86 175 3.0 8.0 0.00 0.00 0.00 38 1015.9
20170820190932 86 175 3.0 8.0 0.00 0.00 0.00 38 1015.9
20170820190927 86 175 3.0 8.0 0.00 0.00 0.00 38 1015.9
20170820190754 85 180 1.0 6.0 0.00 0.00 0.00 39 1015.9
20170820190528 85 180 1.0 6.0 0.00 0.00 0.00 39 1015.9
20170820190526 85 180 1.0 6.0 0.00 0.00 0.00 39 1015.9
20170820190258 84 272 1.0 8.0 0.00 0.00 0.00 39 1016.0
20170820190134 84 272 1.0 8.0 0.00 0.00 0.00 39 1016.0
20170820190132 84 272 1.0 8.0 0.00 0.00 0.00 39 1016.0
20170820190125 84 272 1.0 8.0 0.00 0.00 0.00 39 1016.0
20170820185451 82 85 5.0 9.0 0.00 0.00 0.00 40 1016.0
20170820185324 82 85 5.0 9.0 0.00 0.00 0.00 40 1016.0
20170820184641 86 187 3.0 4.0 0.00 0.00 0.00 40 1016.1
20170820184523 86 187 3.0 4.0 0.00 0.00 0.00 40 1016.1
20170820184519 86 187 3.0 4.0 0.00 0.00 0.00 40 1016.1
20170820184243 85 225 1.0 9.0 0.00 0.00 0.00 41 1016.2
20170820184124 85 225 1.0 9.0 0.00 0.00 0.00 41 1016.2
20170820184122 85 225 1.0 9.0 0.00 0.00 0.00 41 1016.2
20170820184118 85 225 1.0 9.0 0.00 0.00 0.00 41 1016.2
20170820183312 83 117 7.0 9.0 0.00 0.00 0.00 42 1016.3
20170820182916 84 108 4.0 5.0 0.00 0.00 0.00 42 1016.4
20170820182908 84 108 4.0 5.0 0.00 0.00 0.00 42 1016.4
20170820182659 82 180 4.0 5.0 0.00 0.00 0.00 43 1016.5
20170820182517 82 180 4.0 5.0 0.00 0.00 0.00 43 1016.5
20170820182105 81 119 2.0 7.0 0.00 0.00 0.00 43 1016.5
20170820181847 79 87 5.0 8.0 0.00 0.00 0.00 43 1016.6
20170820181711 79 87 5.0 8.0 0.00 0.00 0.00 43 1016.6
20170820181706 79 87 5.0 8.0 0.00 0.00 0.00 43 1016.6
20170820181704 79 87 5.0 8.0 0.00 0.00 0.00 43 1016.6
20170820181416 79 119 7.0 8.0 0.00 0.00 0.00 44 1016.6
20170820181306 79 119 7.0 8.0 0.00 0.00 0.00 44 1016.6
20170820181303 79 119 7.0 8.0 0.00 0.00 0.00 44 1016.6
20170820181051 78 90 6.0 10.0 0.00 0.00 0.00 44 1016.6
20170820180902 78 90 6.0 10.0 0.00 0.00 0.00 44 1016.6
20170820180502 80 76 3.0 7.0 0.00 0.00 0.00 44 1016.7
20170820180219 82 225 4.0 9.0 0.00 0.00 0.00 45 1016.5
20170820180103 82 225 4.0 9.0 0.00 0.00 0.00 45 1016.5
20170820180059 82 225 4.0 9.0 0.00 0.00 0.00 45 1016.5
20170820175826 82 100 1.0 7.0 0.00 0.00 0.00 45 1016.6
20170820175658 82 100 1.0 7.0 0.00 0.00 0.00 45 1016.6
20170820175410 81 180 5.0 5.0 0.00 0.00 0.00 45 1016.6
20170820175300 81 180 5.0 5.0 0.00 0.00 0.00 45 1016.6
20170820175257 81 180 5.0 5.0 0.00 0.00 0.00 45 1016.6
20170820175015 79 216 3.0 6.0 0.00 0.00 0.00 46 1016.6
20170820174901 79 216 3.0 6.0 0.00 0.00 0.00 46 1016.6
20170820174859 79 216 3.0 6.0 0.00 0.00 0.00 46 1016.6
20170820174855 79 216 3.0 6.0 0.00 0.00 0.00 46 1016.6
20170820174503 79 87 0.0 6.0 0.00 0.00 0.00 46 1016.7
20170820174455 79 87 0.0 6.0 0.00 0.00 0.00 46 1016.7
20170820173858 79 326 0.0 2.0 0.00 0.00 0.00 47 1016.9
20170820173654 79 326 0.0 2.0 0.00 0.00 0.00 47 1016.9
20170820173651 79 326 0.0 2.0 0.00 0.00 0.00 47 1016.9
20170820173029 78 247 1.0 3.0 0.00 0.00 0.00 47 1016.8
20170820172851 78 247 1.0 3.0 0.00 0.00 0.00 47 1016.8
20170820172848 78 247 1.0 3.0 0.00 0.00 0.00 47 1016.8
20170820172447 76 189 1.0 5.0 0.00 0.00 0.00 48 1016.8
20170820172247 76 204 3.0 6.0 0.00 0.00 0.00 48 1016.8
20170820172052 76 204 3.0 6.0 0.00 0.00 0.00 48 1016.8
20170820172046 76 204 3.0 6.0 0.00 0.00 0.00 48 1016.8
20170820171846 76 186 5.0 5.0 0.00 0.00 0.00 48 1016.9
20170820171645 76 186 5.0 5.0 0.00 0.00 0.00 48 1016.9
20170820171415 75 155 2.0 5.0 0.00 0.00 0.00 48 1016.9
20170820171243 75 155 2.0 5.0 0.00 0.00 0.00 48 1016.9
20170820170440 75 150 1.0 4.0 0.00 0.00 0.00 49 1016.9
20170820170119 73 180 3.0 4.0 0.00 0.00 0.00 49 1016.9
20170820170041 73 180 3.0 4.0 0.00 0.00 0.00 49 1016.9
20170820170039 73 180 3.0 4.0 0.00 0.00 0.00 49 1016.9
20170820165638 73 193 2.0 6.0 0.00 0.00 0.00 49 1016.9
20170820165409 73 180 2.0 3.0 0.00 0.00 0.00 49 1016.8
20170820165240 73 180 2.0 3.0 0.00 0.00 0.00 49 1016.8
20170820165237 73 180 2.0 3.0 0.00 0.00 0.00 49 1016.8
20170820164837 72 247 1.0 4.0 0.00 0.00 0.00 49 1016.9
20170820164551 71 209 0.0 5.0 0.00 0.00 0.00 50 1016.9
20170820164434 71 209 0.0 5.0 0.00 0.00 0.00 50 1016.9
20170820164214 70 141 2.0 5.0 0.00 0.00 0.00 50 1016.8
20170820164036 70 141 2.0 5.0 0.00 0.00 0.00 50 1016.8
20170820164034 70 141 2.0 5.0 0.00 0.00 0.00 50 1016.8
20170820163809 70 90 4.0 4.0 0.00 0.00 0.00 50 1016.8
20170820163632 70 90 4.0 4.0 0.00 0.00 0.00 50 1016.8
20170820163001 70 2 1.0 1.0 0.00 0.00 0.00 50 1016.9
20170820162834 70 2 1.0 1.0 0.00 0.00 0.00 50 1016.9
20170820162829 70 2 1.0 1.0 0.00 0.00 0.00 50 1016.9
20170820162549 69 45 0.0 4.0 0.00 0.00 0.00 50 1016.8
20170820162433 69 45 0.0 4.0 0.00 0.00 0.00 50 1016.8
20170820162428 69 45 0.0 4.0 0.00 0.00 0.00 50 1016.8
20170820162026 69 27 2.0 2.0 0.00 0.00 0.00 50 1016.9
20170820161809 69 42 1.0 3.0 0.00 0.00 0.00 51 1016.9
20170820161630 69 42 1.0 3.0 0.00 0.00 0.00 51 1016.9
20170820161624 69 42 1.0 3.0 0.00 0.00 0.00 51 1016.9
20170820161228 69 90 2.0 4.0 0.00 0.00 0.00 51 1016.9
20170820161225 69 90 2.0 4.0 0.00 0.00 0.00 51 1016.9
20170820160823 69 85 1.0 2.0 0.00 0.00 0.00 51 1016.9
20170820160554 69 110 1.0 6.0 0.00 0.00 0.00 51 1016.8
20170820160423 69 110 1.0 6.0 0.00 0.00 0.00 51 1016.8
20170820160206 69 90 4.0 4.0 0.00 0.00 0.00 51 1016.9
20170820160022 69 90 4.0 4.0 0.00 0.00 0.00 51 1016.9
20170820160020 69 90 4.0 4.0 0.00 0.00 0.00 51 1016.9
20170820155811 69 144 1.0 4.0 0.00 0.00 0.00 51 1016.8
20170820155621 69 144 1.0 4.0 0.00 0.00 0.00 51 1016.8
20170820155618 69 144 1.0 4.0 0.00 0.00 0.00 51 1016.8
20170820155332 69 92 1.0 2.0 0.00 0.00 0.00 51 1016.8
20170820155222 69 92 1.0 2.0 0.00 0.00 0.00 51 1016.8
20170820155216 69 92 1.0 2.0 0.00 0.00 0.00 51 1016.8
20170820155031 69 94 0.0 3.0 0.00 0.00 0.00 52 1016.7
20170820154820 69 94 0.0 3.0 0.00 0.00 0.00 52 1016.7
20170820154815 69 94 0.0 3.0 0.00 0.00 0.00 52 1016.7
20170820154609 68 135 2.0 5.0 0.00 0.00 0.00 52 1016.7
20170820154421 68 135 2.0 5.0 0.00 0.00 0.00 52 1016.7
20170820154414 68 135 2.0 5.0 0.00 0.00 0.00 52 1016.7
20170820154153 68 90 1.0 4.0 0.00 0.00 0.00 52 1016.7
20170820154019 68 90 1.0 4.0 0.00 0.00 0.00 52 1016.7
20170820154017 68 90 1.0 4.0 0.00 0.00 0.00 52 1016.7
20170820154013 68 90 1.0 4.0 0.00 0.00 0.00 52 1016.7
20170820153827 68 90 1.0 3.0 0.00 0.00 0.00 52 1016.7
20170820153612 68 90 1.0 3.0 0.00 0.00 0.00 52 1016.7
20170820152154 67 90 0.0 2.0 0.00 0.00 0.00 53 1016.6
20170820152008 67 90 0.0 2.0 0.00 0.00 0.00 53 1016.6
20170820152006 67 90 0.0 2.0 0.00 0.00 0.00 53 1016.6
20170820151756 67 126 1.0 2.0 0.00 0.00 0.00 53 1016.6
20170820151608 67 126 1.0 2.0 0.00 0.00 0.00 53 1016.6
20170820151605 67 126 1.0 2.0 0.00 0.00 0.00 53 1016.6
20170820151420 67 225 3.0 4.0 0.00 0.00 0.00 53 1016.6
20170820151210 67 225 3.0 4.0 0.00 0.00 0.00 53 1016.6
20170820151204 67 225 3.0 4.0 0.00 0.00 0.00 53 1016.6
20170820150802 67 117 0.0 2.0 0.00 0.00 0.00 53 1016.6
20170820150546 67 99 1.0 2.0 0.00 0.00 0.00 53 1016.5
20170820150405 67 99 1.0 2.0 0.00 0.00 0.00 53 1016.5
20170820150401 67 99 1.0 2.0 0.00 0.00 0.00 53 1016.5
20170820150218 67 199 1.0 3.0 0.00 0.00 0.00 53 1016.5
20170820150006 67 199 1.0 3.0 0.00 0.00 0.00 53 1016.5
20170820150000 67 199 1.0 3.0 0.00 0.00 0.00 53 1016.5
20170820145819 67 135 1.0 2.0 0.00 0.00 0.00 52 1016.4
20170820145603 67 135 1.0 2.0 0.00 0.00 0.00 52 1016.4
20170820145600 67 135 1.0 2.0 0.00 0.00 0.00 52 1016.4
20170820145558 67 135 1.0 2.0 0.00 0.00 0.00 52 1016.4
20170820145402 66 135 1.0 2.0 0.00 0.00 0.00 53 1016.4
20170820145201 66 135 1.0 2.0 0.00 0.00 0.00 53 1016.4
20170820145159 66 135 1.0 2.0 0.00 0.00 0.00 53 1016.4
20170820145157 66 135 1.0 2.0 0.00 0.00 0.00 53 1016.4
20170820144632 66 315 1.0 1.0 0.00 0.00 0.00 53 1016.3
20170820144358 66 315 1.0 1.0 0.00 0.00 0.00 53 1016.3
20170820144354 66 315 1.0 1.0 0.00 0.00 0.00 53 1016.3
20170820144228 66 171 2.0 3.0 0.00 0.00 0.00 53 1016.3
20170820143956 66 171 2.0 3.0 0.00 0.00 0.00 53 1016.3
20170820143953 66 171 2.0 3.0 0.00 0.00 0.00 53 1016.3
20170820143552 66 45 0.0 2.0 0.00 0.00 0.00 52 1016.4
20170820143152 66 45 0.0 1.0 0.00 0.00 0.00 52 1016.3
20170820143150 66 45 0.0 1.0 0.00 0.00 0.00 52 1016.3
20170820142906 65 101 1.0 2.0 0.00 0.00 0.00 52 1016.3
20170820142754 65 101 1.0 2.0 0.00 0.00 0.00 52 1016.3
20170820142354 65 45 1.0 2.0 0.00 0.00 0.00 52 1016.2
20170820142349 65 45 1.0 2.0 0.00 0.00 0.00 52 1016.2
20170820142208 65 15 0.0 1.0 0.00 0.00 0.00 52 1016.2
20170820141949 65 15 0.0 1.0 0.00 0.00 0.00 52 1016.2
20170820141946 65 15 0.0 1.0 0.00 0.00 0.00 52 1016.2
20170820141812 65 45 0.0 1.0 0.00 0.00 0.00 52 1016.2
20170820141549 65 45 0.0 1.0 0.00 0.00 0.00 52 1016.2
20170820141545 65 45 0.0 1.0 0.00 0.00 0.00 52 1016.2
20170820141325 65 315 1.0 1.0 0.00 0.00 0.00 52 1016.1
20170820141149 65 315 1.0 1.0 0.00 0.00 0.00 52 1016.1
20170820141144 65 315 1.0 1.0 0.00 0.00 0.00 52 1016.1
20170820140742 65 0 0.0 1.0 0.00 0.00 0.00 52 1016.1
20170820140524 65 0 1.0 1.0 0.00 0.00 0.00 52 1016.1
20170820140346 65 0 1.0 1.0 0.00 0.00 0.00 52 1016.1
20170820140342 65 0 1.0 1.0 0.00 0.00 0.00 52 1016.1
20170820140130 65 0 0.0 1.0 0.00 0.00 0.00 52 1016.1
20170820135945 65 0 0.0 1.0 0.00 0.00 0.00 52 1016.1
20170820135940 65 0 0.0 1.0 0.00 0.00 0.00 52 1016.1
20170820135701 65 0 1.0 1.0 0.00 0.00 0.00 53 1016.1
20170820135543 65 0 1.0 1.0 0.00 0.00 0.00 53 1016.1
20170820135539 65 0 1.0 1.0 0.00 0.00 0.00 53 1016.1
20170820135317 65 126 1.0 2.0 0.00 0.00 0.00 53 1016.1
20170820135142 65 126 1.0 2.0 0.00 0.00 0.00 53 1016.1
20170820134934 65 337 1.0 1.0 0.00 0.00 0.00 53 1016.0
20170820134741 65 337 1.0 1.0 0.00 0.00 0.00 53 1016.0
20170820134739 65 337 1.0 1.0 0.00 0.00 0.00 53 1016.0
20170820134736 65 337 1.0 1.0 0.00 0.00 0.00 53 1016.0
20170820134335 65 0 0.0 0.0 0.00 0.00 0.00 53 1016.0
20170820133933 65 0 0.0 1.0 0.00 0.00 0.00 53 1016.0
20170820132732 64 78 0.0 0.0 0.00 0.00 0.00 53 1015.9
20170820132729 64 78 0.0 0.0 0.00 0.00 0.00 53 1015.9
20170820132329 64 15 1.0 1.0 0.00 0.00 0.00 53 1016.0
20170820132138 64 142 1.0 2.0 0.00 0.00 0.00 53 1015.9
20170820131931 64 142 1.0 2.0 0.00 0.00 0.00 53 1015.9
20170820131927 64 142 1.0 2.0 0.00 0.00 0.00 53 1015.9
20170820131714 64 117 1.0 2.0 0.00 0.00 0.00 53 1016.0
20170820131531 64 117 1.0 2.0 0.00 0.00 0.00 53 1016.0
20170820131529 64 117 1.0 2.0 0.00 0.00 0.00 53 1016.0
20170820131526 64 117 1.0 2.0 0.00 0.00 0.00 53 1016.0
20170820131250 64 159 1.0 2.0 0.00 0.00 0.00 53 1015.9
20170820131124 64 159 1.0 2.0 0.00 0.00 0.00 53 1015.9
20170820130927 64 315 2.0 2.0 0.00 0.00 0.00 52 1015.9
20170820130726 64 315 2.0 2.0 0.00 0.00 0.00 52 1015.9
20170820130723 64 315 2.0 2.0 0.00 0.00 0.00 52 1015.9
20170820130448 64 355 1.0 3.0 0.00 0.00 0.00 52 1016.0
20170820130325 64 355 1.0 3.0 0.00 0.00 0.00 52 1016.0
20170820130143 64 0 1.0 2.0 0.00 0.00 0.00 52 1016.0
20170820125925 64 0 1.0 2.0 0.00 0.00 0.00 52 1016.0
20170820125923 64 0 1.0 2.0 0.00 0.00 0.00 52 1016.0
20170820125920 64 0 1.0 2.0 0.00 0.00 0.00 52 1016.0
20170820125521 64 45 0.0 1.0 0.00 0.00 0.00 52 1015.9
20170820125519 64 45 0.0 1.0 0.00 0.00 0.00 52 1015.9
20170820125118 64 114 1.0 1.0 0.00 0.00 0.00 52 1015.9
20170820124912 64 119 1.0 1.0 0.00 0.00 0.00 52 1015.9
20170820124718 64 119 1.0 1.0 0.00 0.00 0.00 52 1015.9
20170820124716 64 119 1.0 1.0 0.00 0.00 0.00 52 1015.9
20170820124513 64 45 0.0 4.0 0.00 0.00 0.00 53 1015.9
20170820124346 64 45 0.0 4.0 0.00 0.00 0.00 53 1015.9
20170820124321 64 45 0.0 4.0 0.00 0.00 0.00 53 1015.9
20170820124315 64 45 0.0 4.0 0.00 0.00 0.00 53 1015.9
20170820123945 64 180 3.0 4.0 0.00 0.00 0.00 53 1015.8
20170820123913 64 180 3.0 4.0 0.00 0.00 0.00 53 1015.8
20170820123735 64 168 2.0 3.0 0.00 0.00 0.00 52 1015.8
20170820123550 64 168 2.0 3.0 0.00 0.00 0.00 52 1015.8
20170820123516 64 168 2.0 3.0 0.00 0.00 0.00 52 1015.8
20170820123514 64 168 2.0 3.0 0.00 0.00 0.00 52 1015.8
20170820123512 64 168 2.0 3.0 0.00 0.00 0.00 52 1015.8
20170820122908 64 135 2.0 2.0 0.00 0.00 0.00 53 1015.6
20170820122736 64 135 2.0 2.0 0.00 0.00 0.00 53 1015.6
20170820122707 64 135 2.0 2.0 0.00 0.00 0.00 53 1015.6
20170820122704 64 135 2.0 2.0 0.00 0.00 0.00 53 1015.6
20170820122502 64 180 4.0 5.0 0.00 0.00 0.00 53 1015.6
20170820122310 64 180 4.0 5.0 0.00 0.00 0.00 53 1015.6
20170820122308 64 180 4.0 5.0 0.00 0.00 0.00 53 1015.6
20170820122306 64 180 4.0 5.0 0.00 0.00 0.00 53 1015.6
20170820122141 64 114 1.0 3.0 0.00 0.00 0.00 53 1015.6
20170820121906 64 114 1.0 3.0 0.00 0.00 0.00 53 1015.6
20170820121901 64 114 1.0 3.0 0.00 0.00 0.00 53 1015.6
20170820121759 64 45 0.0 2.0 0.00 0.00 0.00 53 1015.7
20170820121505 64 45 0.0 2.0 0.00 0.00 0.00 53 1015.7
20170820121501 64 45 0.0 2.0 0.00 0.00 0.00 53 1015.7
20170820120907 64 90 3.0 3.0 0.00 0.00 0.00 53 1015.6
20170820120700 64 90 3.0 3.0 0.00 0.00 0.00 53 1015.6
20170820120659 64 90 3.0 3.0 0.00 0.00 0.00 53 1015.6
20170820120513 64 99 3.0 4.0 0.00 0.00 0.00 53 1015.6
20170820120300 64 99 3.0 4.0 0.00 0.00 0.00 53 1015.6
20170820120258 64 99 3.0 4.0 0.00 0.00 0.00 53 1015.6
20170820120256 64 99 3.0 4.0 0.00 0.00 0.00 53 1015.6
20170820115855 64 155 2.0 3.0 0.00 0.00 0.00 53 1015.6
20170820115720 64 90 0.0 1.0 0.00 0.00 0.00 53 1015.6
20170820115534 64 90 0.0 1.0 0.00 0.00 0.00 53 1015.6
20170820115453 64 90 0.0 1.0 0.00 0.00 0.00 53 1015.6
20170820115057 64 90 0.0 1.0 0.00 0.00 0.00 53 1015.6
20170820115054 64 90 0.0 1.0 0.00 0.00 0.00 53 1015.6
20170820115052 64 90 0.0 1.0 0.00 0.00 0.00 53 1015.6
20170820114650 64 90 1.0 3.0 0.00 0.00 0.00 53 1015.5
20170820114429 64 155 2.0 4.0 0.00 0.00 0.00 53 1015.6
20170820114255 64 155 2.0 4.0 0.00 0.00 0.00 53 1015.6
20170820114253 64 155 2.0 4.0 0.00 0.00 0.00 53 1015.6
20170820114051 64 166 3.0 4.0 0.00 0.00 0.00 53 1015.6
20170820113853 64 166 3.0 4.0 0.00 0.00 0.00 53 1015.6
20170820113848 64 166 3.0 4.0 0.00 0.00 0.00 53 1015.6
20170820113811 63 132 1.0 1.0 0.00 0.00 0.00 53 1015.6
20170820113450 63 132 1.0 1.0 0.00 0.00 0.00 53 1015.6
20170820113248 63 90 0.0 3.0 0.00 0.00 0.00 53 1015.6
20170820113050 63 90 0.0 3.0 0.00 0.00 0.00 53 1015.6
20170820113048 63 90 0.0 3.0 0.00 0.00 0.00 53 1015.6
20170820113045 63 90 0.0 3.0 0.00 0.00 0.00 53 1015.6
20170820112422 63 90 0.0 3.0 0.00 0.00 0.00 53 1015.7
20170820112247 63 90 0.0 3.0 0.00 0.00 0.00 53 1015.7
20170820112244 63 90 0.0 3.0 0.00 0.00 0.00 53 1015.7
20170820112122 63 92 1.0 4.0 0.00 0.00 0.00 53 1015.7
20170820111843 63 92 1.0 4.0 0.00 0.00 0.00 53 1015.7
20170820111654 63 114 1.0 3.0 0.00 0.00 0.00 53 1015.6
20170820111529 63 114 1.0 3.0 0.00 0.00 0.00 53 1015.6
20170820111447 63 114 1.0 3.0 0.00 0.00 0.00 53 1015.6
20170820111444 63 114 1.0 3.0 0.00 0.00 0.00 53 1015.6
20170820111039 63 69 1.0 3.0 0.00 0.00 0.00 53 1015.5
20170820110852 63 90 1.0 3.0 0.00 0.00 0.00 53 1015.5
20170820110642 63 90 1.0 3.0 0.00 0.00 0.00 53 1015.5
20170820110637 63 90 1.0 3.0 0.00 0.00 0.00 53 1015.5
20170820110429 63 90 0.0 3.0 0.00 0.00 0.00 53 1015.4
20170820110241 63 90 0.0 3.0 0.00 0.00 0.00 53 1015.4
20170820110239 63 90 0.0 3.0 0.00 0.00 0.00 53 1015.4
20170820110237 63 90 0.0 3.0 0.00 0.00 0.00 53 1015.4
20170820105953 62 90 3.0 3.0 0.00 0.00 0.00 53 1015.5
20170820105838 62 90 3.0 3.0 0.00 0.00 0.00 53 1015.5
20170820105647 62 90 0.0 1.0 0.00 0.00 0.00 53 1015.5
20170820105514 62 90 0.0 1.0 0.00 0.00 0.00 53 1015.5
20170820105437 62 90 0.0 1.0 0.00 0.00 0.00 53 1015.5
20170820105435 62 90 0.0 1.0 0.00 0.00 0.00 53 1015.5
20170820104118 62 45 0.0 0.0 0.00 0.00 0.00 53 1015.4
20170820103822 62 45 0.0 0.0 0.00 0.00 0.00 53 1015.4
20170820102839 62 0 1.0 1.0 0.00 0.00 0.00 53 1015.3
20170820102616 62 0 1.0 1.0 0.00 0.00 0.00 53 1015.3
20170820102612 62 0 1.0 1.0 0.00 0.00 0.00 53 1015.3
20170820102405 62 42 0.0 1.0 0.00 0.00 0.00 53 1015.4
20170820102211 62 42 0.0 1.0 0.00 0.00 0.00 53 1015.4
20170820101810 62 16 0.0 0.0 0.00 0.00 0.00 53 1015.4
20170820101632 61 90 1.0 1.0 0.00 0.00 0.00 53 1015.5
20170820101412 61 90 1.0 1.0 0.00 0.00 0.00 53 1015.5
20170820101409 61 90 1.0 1.0 0.00 0.00 0.00 53 1015.5
20170820101010 61 96 1.0 1.0 0.00 0.00 0.00 53 1015.5
20170820101008 61 96 1.0 1.0 0.00 0.00 0.00 53 1015.5
20170820100640 61 50 0.0 2.0 0.00 0.00 0.00 53 1015.5
20170820100609 61 50 0.0 2.0 0.00 0.00 0.00 53 1015.5
20170820100607 61 50 0.0 2.0 0.00 0.00 0.00 53 1015.5
20170820100605 61 50 0.0 2.0 0.00 0.00 0.00 53 1015.5
20170820095803 61 90 0.0 0.0 0.00 0.00 0.00 52 1015.7
20170820095401 61 45 0.0 0.0 0.00 0.00 0.00 52 1015.6
20170820095229 61 144 2.0 2.0 0.00 0.00 0.00 52 1015.7
20170820095005 61 144 2.0 2.0 0.00 0.00 0.00 52 1015.7
20170820095001 61 144 2.0 2.0 0.00 0.00 0.00 52 1015.7
20170820094831 60 90 0.0 1.0 0.00 0.00 0.00 52 1015.8
20170820094717 60 90 0.0 1.0 0.00 0.00 0.00 52 1015.8
20170820094603 60 90 0.0 1.0 0.00 0.00 0.00 52 1015.8
20170820094559 60 90 0.0 1.0 0.00 0.00 0.00 52 1015.8
20170820094202 60 90 2.0 4.0 0.00 0.00 0.00 52 1015.8
20170820094158 60 90 2.0 4.0 0.00 0.00 0.00 52 1015.8
20170820093800 60 90 1.0 2.0 0.00 0.00 0.00 52 1015.8
20170820093759 60 90 1.0 2.0 0.00 0.00 0.00 52 1015.8
20170820093756 60 90 1.0 2.0 0.00 0.00 0.00 52 1015.8
20170820093633 60 45 0.0 0.0 0.00 0.00 0.00 52 1015.9
20170820093358 60 45 0.0 0.0 0.00 0.00 0.00 52 1015.9
20170820093355 60 45 0.0 0.0 0.00 0.00 0.00 52 1015.9
20170820093240 61 45 0.0 0.0 0.00 0.00 0.00 52 1015.9
20170820093002 61 45 0.0 0.0 0.00 0.00 0.00 52 1015.9
20170820092959 61 45 0.0 0.0 0.00 0.00 0.00 52 1015.9
20170820092953 61 45 0.0 0.0 0.00 0.00 0.00 52 1015.9
20170820092347 61 90 0.0 0.0 0.00 0.00 0.00 52 1016.0
20170820092158 61 90 0.0 0.0 0.00 0.00 0.00 52 1016.0
20170820092152 61 90 0.0 0.0 0.00 0.00 0.00 52 1016.0
20170820091946 61 90 0.0 0.0 0.00 0.00 0.00 52 1016.0
20170820091756 61 90 0.0 0.0 0.00 0.00 0.00 52 1016.0
20170820091750 61 90 0.0 0.0 0.00 0.00 0.00 52 1016.0
20170820090947 61 90 0.0 1.0 0.00 0.00 0.00 52 1016.0
20170820090809 61 90 0.0 2.0 0.00 0.00 0.00 52 1016.0
20170820090551 61 90 0.0 2.0 0.00 0.00 0.00 52 1016.0
20170820090548 61 90 0.0 2.0 0.00 0.00 0.00 52 1016.0
20170820090546 61 90 0.0 2.0 0.00 0.00 0.00 52 1016.0
20170820090145 61 90 1.0 1.0 0.00 0.00 0.00 52 1016.1
20170820085548 61 81 0.0 4.0 0.00 0.00 0.00 52 1016.2
20170820085352 61 81 0.0 4.0 0.00 0.00 0.00 52 1016.2
20170820085343 61 81 0.0 4.0 0.00 0.00 0.00 52 1016.2
20170820084940 61 114 4.0 4.0 0.00 0.00 0.00 52 1016.2
20170820083600 61 92 3.0 5.0 0.00 0.00 0.00 51 1016.4
20170820083336 61 92 3.0 5.0 0.00 0.00 0.00 51 1016.4